Location: Nashville
(36.1660°N, 86.7840°W)
Time: 10:01:49
(UTC-06:00)

ISS - Visible Passes

Search period start: 03 December 2022 00:00
Search period end: 13 December 2022 00:00
Orbit: 414 x 420 km, 51.6° (Epoch: 03 December)

Date Brightness Start Highest point End Pass type
(mag) Time Alt. Az. Time Alt. Az. Time Alt. Az.
03 Dec -1.6 17:06:10 10° N 17:07:32 12° NNE 17:08:53 10° NE visible
03 Dec -1.1 18:41:30 10° NW 18:42:11 15° NW 18:42:11 15° NW visible
04 Dec -3.2 17:53:31 10° NW 17:56:37 37° NE 17:56:37 37° NE visible
05 Dec -2.5 17:05:38 10° NNW 17:08:23 23° NNE 17:11:08 10° E visible
05 Dec -1.7 18:42:08 10° WNW 18:44:19 28° W 18:44:19 28° W visible
06 Dec -3.5 17:53:47 10° NW 17:57:06 67° SW 17:59:27 18° SE visible
07 Dec -3.8 17:05:36 10° NW 17:08:55 63° NE 17:12:13 10° ESE visible
07 Dec -0.3 18:44:36 10° WSW 18:45:15 10° SW 18:45:54 10° SW visible
08 Dec -0.9 17:54:44 10° W 17:57:13 19° SW 17:59:41 10° S visible
09 Dec -2.0 17:06:01 10° WNW 17:09:07 36° SW 17:12:11 10° SSE visible
11 Dec 0.0 17:07:54 10° WSW 17:09:00 11° SW 17:10:05 10° SW visible
